Satellite: HRBE Catalog number: 37855 Epoch time: 13187.21905664 Element set: 536 Inclination: 101.7140 deg RA of node: 050.3315 deg Eccentricity: 0.0235313 Arg of perigee: 332.0516 deg Mean anomaly: 137.6382 deg Mean motion: 14.84216892 rev/day Decay rate: 2.724e-05 rev/day^2 Epoch rev: 9127 Checksum: 280
Satellite: RS-39 Catalog number: 38051 Epoch time: 13187.81028568 Element set: 579 Inclination: 051.6338 deg RA of node: 115.8177 deg Eccentricity: 0.0011099 Arg of perigee: 343.9031 deg Mean anomaly: 065.6390 deg Mean motion: 15.33194478 rev/day Decay rate: 1.0796e-04 rev/day^2 Epoch rev: 8079 Checksum: 336
Satellite: E-STAR Catalog number: 38079 Epoch time: 13187.95050111 Element set: 265 Inclination: 069.4701 deg RA of node: 135.2253 deg Eccentricity: 0.0602995 Arg of perigee: 111.0638 deg Mean anomaly: 255.6454 deg Mean motion: 14.48433481 rev/day Decay rate: 3.9327e-04 rev/day^2 Epoch rev: 7260 Checksum: 299
Satellite: GOLIAT Catalog number: 38085 Epoch time: 13187.86526933 Element set: 183 Inclination: 069.4751 deg RA of node: 137.7502 deg Eccentricity: 0.0613036 Arg of perigee: 112.2548 deg Mean anomaly: 344.4361 deg Mean motion: 14.46246169 rev/day Decay rate: 6.0280e-04 rev/day^2 Epoch rev: 7252 Checksum: 304
Satellite: HORYU-2 Catalog number: 38340 Epoch time: 13186.87778007 Element set: 539 Inclination: 098.2153 deg RA of node: 134.6923 deg Eccentricity: 0.0012002 Arg of perigee: 189.3443 deg Mean anomaly: 170.7537 deg Mean motion: 14.70999539 rev/day Decay rate: 6.57e-06 rev/day^2 Epoch rev: 6086 Checksum: 327
Satellite: RS-40 Catalog number: 38736 Epoch time: 13186.98974826 Element set: 311 Inclination: 082.4782 deg RA of node: 143.4019 deg Eccentricity: 0.0020272 Arg of perigee: 288.4296 deg Mean anomaly: 071.4582 deg Mean motion: 12.42868867 rev/day Decay rate: 1.0e-07 rev/day^2 Epoch rev: 4258 Checksum: 323
Satellite: PROITERES Catalog number: 38756 Epoch time: 13187.86572327 Element set: 911 Inclination: 098.2519 deg RA of node: 265.2703 deg Eccentricity: 0.0013652 Arg of perigee: 048.2435 deg Mean anomaly: 311.9927 deg Mean motion: 14.74257027 rev/day Decay rate: 3.78e-06 rev/day^2 Epoch rev: 4429 Checksum: 319
Satellite: RAIKO Catalog number: 38852 Epoch time: 13186.87630905 Element set: 273 Inclination: 051.6380 deg RA of node: 350.9077 deg Eccentricity: 0.0002858 Arg of perigee: 057.1520 deg Mean anomaly: 303.2043 deg Mean motion: 15.87885419 rev/day Decay rate: 2.33319e-03 rev/day^2 Epoch rev: 4284 Checksum: 308
Satellite: FITSAT 1 Catalog number: 38853 Epoch time: 13184.86912902 Element set: 315 Inclination: 051.6252 deg RA of node: 351.6077 deg Eccentricity: 0.0011722 Arg of perigee: 245.9321 deg Mean anomaly: 114.2104 deg Mean motion: 16.39337660 rev/day Decay rate: 6.638326e-02 rev/day^2 Epoch rev: 4270 Checksum: 289
Satellite: TechEdSat Catalog number: 38854 Epoch time: 13124.93253577 Element set: 290 Inclination: 051.6449 deg RA of node: 297.0261 deg Eccentricity: 0.0010505 Arg of perigee: 310.8629 deg Mean anomaly: 049.0629 deg Mean motion: 16.38844728 rev/day Decay rate: 1.1592855e-01 rev/day^2 Epoch rev: 3329 Checksum: 325
Satellite: F 1 Catalog number: 38855 Epoch time: 13129.77714356 Element set: 287 Inclination: 051.5085 deg RA of node: 272.4145 deg Eccentricity: 0.0008326 Arg of perigee: 194.2908 deg Mean anomaly: 166.5495 deg Mean motion: 16.49710473 rev/day Decay rate: 2.7424026e-01 rev/day^2 Epoch rev: 3394 Checksum: 332
Satellite: WeWish Catalog number: 38856 Epoch time: 13069.98095549 Element set: 248 Inclination: 051.6166 deg RA of node: 215.0521 deg Eccentricity: 0.0008325 Arg of perigee: 316.0438 deg Mean anomaly: 044.8765 deg Mean motion: 16.41348316 rev/day Decay rate: 1.6701328e-01 rev/day^2 Epoch rev: 2458 Checksum: 318
Satellite: OSSI-1 Catalog number: 39131 Epoch time: 13180.28010488 Element set: 6 Inclination: 064.8839 deg RA of node: 144.9671 deg Eccentricity: 0.0082023 Arg of perigee: 027.6799 deg Mean anomaly: 332.8219 deg Mean motion: 16.01085619 rev/day Decay rate: 5.67638e-03 rev/day^2 Epoch rev: 1107 Checksum: 309
Satellite: BEESAT-3 Catalog number: 39134 Epoch time: 13187.87469517 Element set: 201 Inclination: 064.8781 deg RA of node: 146.7415 deg Eccentricity: 0.0011042 Arg of perigee: 205.7007 deg Mean anomaly: 154.3580 deg Mean motion: 15.00454006 rev/day Decay rate: 2.669e-05 rev/day^2 Epoch rev: 1178 Checksum: 284
Satellite: BEESAT-2 Catalog number: 39136 Epoch time: 13187.74180752 Element set: 178 Inclination: 064.8781 deg RA of node: 147.1620 deg Eccentricity: 0.0011278 Arg of perigee: 205.6939 deg Mean anomaly: 154.3634 deg Mean motion: 15.00413931 rev/day Decay rate: 2.363e-05 rev/day^2 Epoch rev: 1176 Checksum: 293
/EX
participants (1)
-
Ray Hoad